Location: Arbury
(52.2217°N, 0.1159°E)
Time: 23:41:03
(UTC+01:00)

ISS - Visible Passes

Search period start: 23 July 2017 00:00
Search period end: 02 August 2017 00:00
Orbit: 400 x 408 km, 51.6° (Epoch: 24 July)

Date Brightness Start Highest point End Pass type
(mag) Time Alt. Az. Time Alt. Az. Time Alt. Az.
23 Jul -4.0 00:50:36 10° WSW 00:53:51 76° S 00:57:07 10° E visible
23 Jul -4.0 02:27:02 10° W 02:30:17 70° SSW 02:33:32 10° ESE visible
23 Jul -2.8 04:03:41 10° W 04:06:27 25° SSW 04:09:13 10° SSE visible
23 Jul -2.6 22:22:57 10° SSW 22:25:30 21° SSE 22:28:03 10° E visible
23 Jul -4.0 23:58:22 10° WSW 00:01:36 63° SSE 00:04:49 10° E visible
24 Jul -4.0 01:34:45 10° W 01:38:01 80° S 01:41:17 10° E visible
24 Jul -3.3 03:11:15 10° W 03:14:19 36° SSW 03:17:21 10° SE visible
24 Jul -3.7 23:06:11 10° SW 23:09:21 48° SSE 23:12:30 10° E visible
25 Jul -4.0 00:42:27 10° W 00:45:43 83° S 00:48:59 10° E visible
25 Jul -3.7 02:18:55 10° W 02:22:06 50° SSW 02:25:16 10° ESE visible
25 Jul -2.1 03:56:05 10° WSW 03:58:02 15° SW 04:00:00 10° S visible
25 Jul -3.2 22:14:08 10° SW 22:17:08 35° SSE 22:20:08 10° E visible
25 Jul -4.0 23:50:09 10° W 23:53:24 79° S 23:56:40 10° E visible
26 Jul -3.6 01:26:35 10° W 01:29:16 52° WSW 01:29:16 52° WSW visible
26 Jul -4.0 22:57:52 10° WSW 23:01:06 68° SSE 23:04:20 10° E visible
27 Jul -4.0 00:34:16 10° W 00:37:31 77° S 00:37:56 63° SE visible
27 Jul -3.7 22:05:37 10° WSW 22:08:48 53° SSE 22:12:00 10° E visible
27 Jul -4.0 23:41:55 10° W 23:45:11 83° S 23:46:57 25° E visible
28 Jul -1.9 01:18:24 10° W 01:19:33 19° W 01:19:33 19° W visible
28 Jul -4.0 22:49:35 10° W 22:52:50 81° S 22:56:05 10° E visible
29 Jul -3.5 00:26:02 10° W 00:28:41 49° WSW 00:28:41 49° WSW visible
29 Jul -3.9 21:57:14 10° WSW 22:00:29 72° S 22:03:44 10° E visible
29 Jul -4.0 23:33:40 10° W 23:36:55 73° S 23:37:53 41° ESE visible
30 Jul -1.2 01:10:15 10° W 01:10:31 12° W 01:10:31 12° W visible
30 Jul -3.9 22:41:17 10° W 22:44:33 81° S 22:47:07 15° E visible
31 Jul -2.5 00:17:46 10° W 00:19:44 29° WSW 00:19:44 29° WSW visible
31 Jul -3.9 21:48:54 10° W 21:52:10 82° S 21:55:26 10° E visible
31 Jul -3.8 23:25:21 10° W 23:28:33 55° SSW 23:28:59 50° SSE visible
01 Aug -3.9 22:32:57 10° W 22:36:12 69° S 22:38:13 21° ESE visible
